Location: Poughquag
(41.6090°N, 73.6820°W)
Time: 00:02:29
(UTC-05:00)

deb Explorer IX - All Passes

Search period start: 29 November 2023 00:00
Search period end: 09 December 2023 00:00
Orbit: 523 x 938 km, 38.8° (Epoch: 28 November)

Date Brightness Start Highest point End Pass type
(mag) Time Alt. Az. Time Alt. Az. Time Alt. Az.
29 Nov - 00:45:04 10° WSW 00:49:55 59° S 00:55:26 10° E night (unlit)
29 Nov - 02:29:28 10° W 02:34:44 63° S 02:40:39 10° ESE visible
29 Nov - 04:14:18 10° W 04:19:29 36° SSW 04:25:06 10° SE visible
29 Nov - 06:01:13 10° WSW 06:03:47 13° SW 06:06:23 10° SSW visible
29 Nov - 22:11:09 10° SSW 22:14:19 19° SSE 22:17:46 10° ESE night (unlit)
29 Nov - 23:53:55 10° WSW 23:58:28 50° SSE 00:03:39 10° E night (unlit)
30 Nov - 01:38:08 10° W 01:43:11 65° S 01:48:54 10° ESE night (unlit)
30 Nov - 03:22:47 10° W 03:27:57 43° SSW 03:33:39 10° SE visible
30 Nov - 05:08:39 10° WSW 05:12:23 17° SSW 05:16:16 10° S visible
30 Nov - 21:21:08 10° S 21:23:06 13° SE 21:25:10 10° ESE night (unlit)
30 Nov - 23:02:48 10° SW 23:07:02 41° SSE 23:11:47 10° E night (unlit)
01 Dec - 00:46:47 10° W 00:51:36 65° S 00:57:05 10° E night (unlit)
01 Dec - 02:31:18 10° W 02:36:22 49° SSW 02:42:02 10° ESE visible
01 Dec - 04:16:35 10° W 04:20:52 22° SSW 04:25:27 10° SSE visible
01 Dec - 22:11:44 10° SW 22:15:35 31° SSE 22:19:51 10° E night (unlit)
01 Dec - 23:55:25 10° WSW 23:59:59 61° S 00:05:11 10° E night (unlit)
02 Dec - 01:39:49 10° W 01:44:42 56° S 01:50:15 10° ESE night (unlit)
02 Dec - 03:24:43 10° W 03:29:17 28° SSW 03:34:15 10° SSE visible
02 Dec - 21:20:48 10° SSW 21:24:08 23° SSE 21:27:45 10° E night (unlit)
02 Dec - 23:04:02 10° WSW 23:08:21 55° S 23:13:15 10° E night (unlit)
03 Dec - 00:48:18 10° W 00:53:00 60° S 00:58:21 10° ESE night (unlit)
03 Dec - 02:32:58 10° W 02:37:36 34° SSW 02:42:45 10° SE visible
03 Dec - 04:19:56 10° SW 04:21:52 12° SW 04:23:50 10° SSW visible
03 Dec - 20:30:06 10° S 20:32:41 16° SSE 20:35:23 10° ESE night (unlit)
03 Dec - 22:12:37 10° WSW 22:16:43 46° SSE 22:21:15 10° E night (unlit)
03 Dec - 23:56:45 10° W 00:01:15 63° S 00:06:22 10° ESE night (unlit)
04 Dec - 01:41:16 10° W 01:45:52 40° SSW 01:51:02 10° SE night (unlit)
04 Dec - 03:27:02 10° WSW 03:30:12 16° SSW 03:33:33 10° S visible
04 Dec - 19:40:16 10° SSE 19:41:11 11° SE 19:42:07 10° SE night (unlit)
04 Dec - 21:21:15 10° SW 21:25:03 36° SSE 21:29:12 10° E night (unlit)
04 Dec - 23:05:09 10° WSW 23:09:28 62° S 23:14:19 10° E night (unlit)
05 Dec - 00:49:33 10° W 00:54:03 47° SSW 00:59:08 10° ESE night (unlit)
05 Dec - 02:34:44 10° WSW 02:38:27 20° SSW 02:42:29 10° SSE night (unlit)
05 Dec - 20:29:54 10° SW 20:33:22 28° SSE 20:37:03 10° E night (unlit)
05 Dec - 22:13:31 10° WSW 22:17:38 58° S 22:22:13 10° E night (unlit)
05 Dec - 23:57:50 10° W 00:02:12 53° S 00:07:07 10° ESE night (unlit)
06 Dec - 01:42:38 10° W 01:46:38 25° SSW 01:51:01 10° SSE night (unlit)
06 Dec - 19:38:41 10° SSW 19:41:40 20° SSE 19:44:45 10° ESE visible
06 Dec - 21:21:50 10° WSW 21:25:47 51° S 21:30:06 10° E night (unlit)
06 Dec - 23:06:04 10° W 23:10:17 58° S 23:15:01 10° ESE night (unlit)
07 Dec - 00:50:39 10° W 00:54:45 31° SSW 00:59:17 10° SE night (unlit)
07 Dec - 02:38:22 10° SW 02:38:54 10° SW 02:39:27 10° SSW night (unlit)
07 Dec - 18:47:44 10° S 18:49:55 14° SSE 18:52:08 10° ESE visible
07 Dec - 20:30:07 10° SW 20:33:55 42° SSE 20:37:57 10° E night (unlit)
07 Dec - 22:14:14 10° W 22:18:19 60° S 22:22:50 10° ESE night (unlit)
07 Dec - 23:58:42 10° W 00:02:47 37° SSW 00:07:20 10° SE night (unlit)
08 Dec - 01:44:31 10° WSW 01:47:01 14° SSW 01:49:38 10° S night (unlit)
08 Dec - 19:38:25 10° SW 19:42:01 33° SSE 19:45:43 10° E visible
08 Dec - 21:22:20 10° WSW 21:26:19 59° S 21:30:37 10° E night (unlit)
08 Dec - 23:06:43 10° W 23:10:46 44° SSW 23:15:15 10° ESE night (unlit)
